| time (UTC) | temp F | wind direction | speed MPH | gust MPH | rain 1hr in | rain 24hr in | rain mn in | humidity % | barometer mb |
| 20260508020223 | 77 | 231 | 3.0 | 10.0 | 0.00 | 0.00 | 0.00 | 32 | 1012.7 |
| 20260508020152 | 77 | 231 | 3.0 | 10.0 | 0.00 | 0.00 | 0.00 | 32 | 1012.7 |
| 20260508020121 | 77 | 231 | 3.0 | 10.0 | 0.00 | 0.00 | 0.00 | 32 | 1012.7 |
| 20260508014634 | 77 | 240 | 2.0 | 7.0 | 0.00 | 0.00 | 0.00 | 29 | 1012.7 |
| 20260508013043 | 77 | 211 | 5.0 | 13.0 | 0.00 | 0.00 | 0.00 | 22 | 1012.8 |
| 20260508011544 | 78 | 236 | 5.0 | 14.0 | 0.00 | 0.00 | 0.00 | 19 | 1012.7 |
| 20260508010049 | 79 | 214 | 5.0 | 15.0 | 0.00 | 0.00 | 0.00 | 23 | 1012.9 |
| 20260508004554 | 80 | 214 | 5.0 | 13.0 | 0.00 | 0.00 | 0.00 | 21 | 1012.7 |
| 20260508003046 | 80 | 210 | 6.0 | 11.0 | 0.00 | 0.00 | 0.00 | 19 | 1012.6 |
| 20260508001543 | 82 | 281 | 0.0 | 4.0 | 0.00 | 0.00 | 0.00 | 23 | 1012.8 |
| 20260508000049 | 82 | 340 | 2.0 | 5.0 | 0.00 | 0.00 | 0.00 | 22 | 1012.4 |
| 20260507234605 | 83 | 0 | 1.0 | 6.0 | 0.00 | 0.00 | 0.00 | 21 | 1012.3 |
| 20260507233049 | 82 | 25 | 2.0 | 7.0 | 0.00 | 0.00 | 0.00 | 22 | 1012.3 |
| 20260507231549 | 82 | 61 | 4.0 | 10.0 | 0.00 | 0.00 | 0.00 | 22 | 1012.3 |
| 20260507230046 | 82 | 13 | 1.0 | 10.0 | 0.00 | 0.00 | 0.00 | 23 | 1012.4 |
| 20260507224542 | 84 | 1 | 1.0 | 9.0 | 0.00 | 0.00 | 0.00 | 16 | 1012.5 |
| 20260507223051 | 83 | 96 | 2.0 | 8.0 | 0.00 | 0.00 | 0.00 | 16 | 1012.6 |
| 20260507221548 | 81 | 351 | 3.0 | 5.0 | 0.00 | 0.00 | 0.00 | 16 | 1012.8 |
| 20260507220044 | 82 | 182 | 5.0 | 11.0 | 0.00 | 0.00 | 0.00 | 14 | 1013.1 |
| 20260507214724 | 82 | 25 | 2.0 | 7.0 | 0.00 | 0.00 | 0.00 | 12 | 1013.3 |
| 20260507213042 | 82 | 233 | 2.0 | 6.0 | 0.00 | 0.00 | 0.00 | 13 | 1013.4 |
| 20260507211548 | 81 | 0 | 2.0 | 6.0 | 0.00 | 0.00 | 0.00 | 16 | 1013.7 |
| 20260507210049 | 80 | 13 | 1.0 | 6.0 | 0.00 | 0.00 | 0.00 | 21 | 1013.7 |
| 20260507204544 | 80 | 326 | 1.0 | 5.0 | 0.00 | 0.00 | 0.00 | 21 | 1014.0 |
| 20260507203048 | 79 | 0 | 2.0 | 6.0 | 0.00 | 0.00 | 0.00 | 23 | 1014.1 |
| 20260507201547 | 80 | 18 | 0.0 | 7.0 | 0.00 | 0.00 | 0.00 | 24 | 1014.3 |
| 20260507200051 | 79 | 239 | 2.0 | 5.0 | 0.00 | 0.00 | 0.00 | 26 | 1014.6 |
| 20260507194548 | 79 | 0 | 0.0 | 5.0 | 0.00 | 0.00 | 0.00 | 25 | 1014.7 |
| 20260507193050 | 77 | 25 | 1.0 | 6.0 | 0.00 | 0.00 | 0.00 | 24 | 1014.8 |
| 20260507191544 | 78 | 0 | 0.0 | 5.0 | 0.00 | 0.00 | 0.00 | 25 | 1015.0 |
| 20260507190043 | 75 | 157 | 3.0 | 8.0 | 0.00 | 0.00 | 0.00 | 28 | 1015.2 |
| 20260507184545 | 74 | 0 | 2.0 | 5.0 | 0.00 | 0.00 | 0.00 | 30 | 1015.3 |
| 20260507183045 | 74 | 6 | 3.0 | 5.0 | 0.00 | 0.00 | 0.00 | 35 | 1015.6 |
| 20260507181543 | 73 | 217 | 0.0 | 3.0 | 0.00 | 0.00 | 0.00 | 36 | 1015.8 |
| 20260507180045 | 72 | 83 | 1.0 | 5.0 | 0.00 | 0.00 | 0.00 | 37 | 1015.9 |
| 20260507174550 | 73 | 328 | 2.0 | 5.0 | 0.00 | 0.00 | 0.00 | 38 | 1016.0 |
| 20260507173049 | 72 | 214 | 1.0 | 5.0 | 0.00 | 0.00 | 0.00 | 39 | 1016.2 |
| 20260507171604 | 71 | 280 | 1.0 | 5.0 | 0.00 | 0.00 | 0.00 | 42 | 1016.4 |
| 20260507170044 | 69 | 292 | 3.0 | 7.0 | 0.00 | 0.00 | 0.00 | 41 | 1016.4 |
| 20260507164600 | 69 | 0 | 1.0 | 6.0 | 0.00 | 0.00 | 0.00 | 43 | 1016.6 |
| 20260507163043 | 67 | 200 | 4.0 | 7.0 | 0.00 | 0.00 | 0.00 | 46 | 1016.3 |
| 20260507161547 | 66 | 141 | 2.0 | 6.0 | 0.00 | 0.00 | 0.00 | 47 | 1016.7 |
| 20260507160044 | 66 | 140 | 4.0 | 9.0 | 0.00 | 0.00 | 0.00 | 48 | 1016.9 |
| 20260507154545 | 63 | 0 | 1.0 | 5.0 | 0.00 | 0.00 | 0.00 | 55 | 1016.9 |
| 20260507153048 | 62 | 0 | 0.0 | 2.0 | 0.00 | 0.00 | 0.00 | 58 | 1017.0 |
| 20260507151544 | 62 | 26 | 1.0 | 3.0 | 0.00 | 0.00 | 0.00 | 58 | 1017.3 |
| 20260507150052 | 61 | 343 | 0.0 | 3.0 | 0.00 | 0.00 | 0.00 | 60 | 1017.2 |
| 20260507144550 | 61 | 39 | 0.0 | 2.0 | 0.00 | 0.00 | 0.00 | 59 | 1017.2 |
| 20260507143046 | 59 | 0 | 1.0 | 4.0 | 0.00 | 0.00 | 0.00 | 62 | 1017.1 |
| 20260507141550 | 59 | 210 | 0.0 | 3.0 | 0.00 | 0.00 | 0.00 | 62 | 1017.2 |
| 20260507140058 | 57 | 0 | 0.0 | 5.0 | 0.00 | 0.00 | 0.00 | 65 | 1017.0 |
| 20260507134554 | 57 | 212 | 2.0 | 6.0 | 0.00 | 0.00 | 0.00 | 64 | 1017.1 |
| 20260507133044 | 58 | 205 | 2.0 | 6.0 | 0.00 | 0.00 | 0.00 | 63 | 1016.8 |
| 20260507131550 | 57 | 210 | 2.0 | 7.0 | 0.00 | 0.00 | 0.00 | 65 | 1016.6 |
| 20260507130054 | 57 | 228 | 2.0 | 6.0 | 0.00 | 0.00 | 0.00 | 65 | 1016.5 |
| 20260507124541 | 56 | 148 | 0.0 | 1.0 | 0.00 | 0.00 | 0.00 | 66 | 1016.7 |
| 20260507123044 | 57 | 0 | 0.0 | 2.0 | 0.00 | 0.00 | 0.00 | 65 | 1016.6 |
| 20260507121543 | 57 | 0 | 0.0 | 3.0 | 0.00 | 0.00 | 0.00 | 64 | 1016.6 |
| 20260507120046 | 57 | 260 | 2.0 | 5.0 | 0.00 | 0.00 | 0.00 | 64 | 1016.4 |
| 20260507114547 | 58 | 179 | 2.0 | 6.0 | 0.00 | 0.00 | 0.00 | 64 | 1016.2 |
| 20260507113040 | 58 | 232 | 2.0 | 6.0 | 0.00 | 0.00 | 0.00 | 63 | 1016.3 |
| 20260507111544 | 58 | 240 | 1.0 | 9.0 | 0.00 | 0.00 | 0.00 | 63 | 1016.4 |
| 20260507110059 | 59 | 158 | 3.0 | 7.0 | 0.00 | 0.00 | 0.00 | 62 | 1016.2 |
| 20260507104545 | 59 | 188 | 2.0 | 7.0 | 0.00 | 0.00 | 0.00 | 62 | 1016.1 |
| 20260507103041 | 59 | 184 | 3.0 | 9.0 | 0.00 | 0.00 | 0.00 | 62 | 1016.0 |
| 20260507101546 | 59 | 211 | 4.0 | 11.0 | 0.00 | 0.00 | 0.00 | 62 | 1016.0 |
| 20260507100044 | 59 | 205 | 2.0 | 8.0 | 0.00 | 0.00 | 0.00 | 62 | 1016.2 |
| 20260507094545 | 59 | 218 | 4.0 | 7.0 | 0.00 | 0.00 | 0.00 | 62 | 1016.3 |
| 20260507093047 | 60 | 232 | 3.0 | 9.0 | 0.00 | 0.00 | 0.00 | 61 | 1016.4 |
| 20260507091611 | 60 | 207 | 2.0 | 10.0 | 0.00 | 0.00 | 0.00 | 60 | 1016.3 |
| 20260507090055 | 61 | 223 | 1.0 | 4.0 | 0.00 | 0.00 | 0.00 | 60 | 1016.4 |
| 20260507084555 | 61 | 162 | 2.0 | 8.0 | 0.00 | 0.00 | 0.00 | 60 | 1016.4 |
| 20260507083043 | 61 | 210 | 6.0 | 11.0 | 0.00 | 0.00 | 0.00 | 59 | 1016.2 |
| 20260507081548 | 62 | 224 | 5.0 | 12.0 | 0.00 | 0.00 | 0.00 | 59 | 1016.3 |
| 20260507080230 | 62 | 228 | 1.0 | 6.0 | 0.00 | 0.00 | 0.00 | 59 | 1016.2 |